Change the Weather History Date:

Monday, August 19, 2013

  Actual Average Record
Temperature  
Mean Temperature 78 °F 69 °F  
Max Temperature 87 °F 81 °F 104 °F (1976)
Min Temperature 69 °F 57 °F 37 °F (1956)
Degree Days  
Heating Degree Days 0 1  
Month to date heating degree days 23 10  
Since 1 June heating degree days 118 85  
Since 1 July heating degree days 49 23  
Cooling Degree Days 13 5  
Month to date cooling degree days 40 110  
Year to date cooling degree days 388 432  
Since 1 June cooling degree days 363 409  
Growing Degree Days 28 (Base 50)    
Moisture  
Dew Point 68 °F    
Average Humidity 77    
Maximum Humidity 97    
Minimum Humidity 57    
Precipitation  
Precipitation 0.00 in 0.06 in 0.93 in (1966)
Month to date precipitation 0.64 1.49  
Year to date precipitation 18.36 15.79  
Sea Level Pressure  
Sea Level Pressure 29.81 in    
Wind  
Wind Speed 6 mph (SSW)    
Max Wind Speed 20 mph    
Max Gust Speed 26 mph    
T = Trace of Precipitation, MM = Missing Value Source: NWS Daily Summary

Daily Weather History Graph

Daily Weather History Graph

Search for Another Location

Airport or City:

Trip Planner

Search our weather history database for the weather conditions in past years. The results will help you decide how hot, cold, wet, or windy it might be!

Date:

Astronomy

Aug. 19, 2013 Rise Set
Actual Time 6:33 AM CDT 8:28 PM CDT
Civil Twilight 6:01 AM CDT 9:00 PM CDT
Nautical Twilight 5:22 AM CDT 9:39 PM CDT
Astronomical Twilight 4:39 AM CDT 10:22 PM CDT
Moon 7:20 PM CDT (8/19) 4:52 AM CDT (8/19)
Length of Visible Light 14h 58m
Length of Day
13h 55m
Waxing Gibbous, 97% of the Moon is Illuminated
Aug 19
Waxing Gibbous
Aug 20
Full
Aug 28
Last Quarter
Sep 5
New
Sep 12
First Quarter

Hourly Weather History & Observations

Time (CDT) Temp. Heat Index Dew Point Humidity Pressure Visibility Wind Dir Wind Speed Gust Speed Precip Events Conditions
12:56 AM 73.9 °F - 64.9 °F 73% 29.87 in - WSW 12.7 mph 21.9 mph N/A   Unknown
1:56 AM 73.9 °F - 64.9 °F 73% 29.86 in - WSW 15.0 mph 21.9 mph N/A   Unknown
2:56 AM 73.0 °F - 66.0 °F 79% 29.83 in - WSW 13.8 mph 19.6 mph N/A   Unknown
3:56 AM 73.0 °F - 66.0 °F 79% 29.81 in - WSW 13.8 mph 20.7 mph N/A   Unknown
4:56 AM 73.0 °F - 64.9 °F 76% 29.81 in - WSW 15.0 mph - N/A   Unknown
5:56 AM 71.1 °F - 64.9 °F 81% 29.81 in - WSW 10.4 mph - N/A   Unknown
6:56 AM 70.0 °F - 64.9 °F 84% 29.82 in - SSW 4.6 mph - N/A   Unknown
7:56 AM 71.1 °F - 64.9 °F 81% 29.83 in - South 3.5 mph - N/A   Unknown
8:56 AM 75.0 °F - 64.9 °F 71% 29.83 in - West 8.1 mph - N/A   Unknown
9:56 AM 78.1 °F - 66.0 °F 66% 29.83 in - Calm Calm - N/A   Unknown
10:56 AM 81.0 °F 83.8 °F 68.0 °F 65% 29.83 in - North 5.8 mph - N/A   Unknown
11:56 AM 82.9 °F 86.5 °F 69.1 °F 63% 29.83 in - NE 3.5 mph - N/A   Unknown
12:56 PM 82.0 °F 85.9 °F 70.0 °F 67% 29.82 in - Calm Calm - N/A   Unknown
1:56 PM 84.0 °F 88.4 °F 70.0 °F 63% 29.81 in - SSE 5.8 mph - N/A   Unknown
2:56 PM 86.0 °F 91.5 °F 71.1 °F 61% 29.79 in - Variable 3.5 mph - N/A   Unknown
3:56 PM 86.0 °F 91.5 °F 71.1 °F 61% 29.78 in - Variable 3.5 mph - N/A   Unknown
4:56 PM 86.0 °F 91.5 °F 71.1 °F 61% 29.77 in - SSE 4.6 mph - N/A   Unknown
5:56 PM 86.0 °F 90.7 °F 70.0 °F 59% 29.77 in - SE 4.6 mph - N/A   Unknown
6:56 PM 84.0 °F 88.4 °F 70.0 °F 63% 29.77 in - SSE 4.6 mph - N/A   Unknown
7:56 PM 81.0 °F 84.9 °F 71.1 °F 72% 29.77 in - South 4.6 mph - N/A   Unknown
8:56 PM 75.0 °F - 70.0 °F 84% 29.78 in - SSE 4.6 mph - N/A   Unknown
9:56 PM 72.0 °F - 70.0 °F 93% 29.78 in - SW 4.6 mph - N/A   Unknown
10:56 PM 70.0 °F - 68.0 °F 93% 29.78 in - SW 5.8 mph - N/A   Unknown
11:56 PM 69.1 °F - 66.9 °F 93% 29.78 in - SSW 4.6 mph - N/A   Unknown